User: anonymous   Login
Location: Unspecified
(0.0000°N, 0.0000°E)
Time: 13:54:18
(UTC+00:00)
Language:

NOSS 7 (H) - Orbit

View from above orbital plane
View from above orbital plane
View from above satellite
View from above satellite

Ground track
Ground track

The orbit data is extracted from the following two-line orbital elements,

1 16631U 86014H   19143.08054445 0.00001100  00000-0  92949-4 0    06
2 16631  63.2977 147.5641 0932169  61.2296 298.5625 13.46863865    04
Epoch (UTC): 23 May 2019 01:55:59
Eccentricity: 0.0932169
inclination: 63.2977°
perigee height: 388 km
apogee height: 1779 km
right ascension of ascending node: 147.5641°
argument of perigee: 61.2296°
revolutions per day: 13.46863865
mean anomaly at epoch: 298.5625°
orbit number at epoch: 0

The dashed part of the orbit path shows where the satellite is in the earth's shadow,  

DLR